Weather History for Waseca, MN

Change the Weather History Date:

Friday, November 23, 2012

  Actual Average Record
Temperature  
Mean Temperature 24 °F -  
Max Temperature 30 °F 36 °F 59 °F (2006)
Min Temperature 17 °F 20 °F -6 °F (1950)
Degree Days  
Heating Degree Days 42    
Moisture  
Dew Point 13 °F    
Average Humidity 63    
Maximum Humidity 74    
Minimum Humidity 51    
Precipitation  
Precipitation 0.00 in - - ()
Sea Level Pressure  
Sea Level Pressure 30.27 in    
Wind  
Wind Speed 25 mph (NW)    
Max Wind Speed 36 mph    
Max Gust Speed 47 mph    
Visibility 9 miles    
Events Snow    
Averages and records for this station are not official NWS values.
T = Trace of Precipitation, MM = Missing Value Source: NWS Daily Summary

Daily Weather History Graph

Daily Weather History Graph

Search for Another Location

Airport:

Trip Planner

Search our weather history database for the weather conditions in past years. The results will help you decide how hot, cold, wet, or windy it might be!

Date:

Astronomy

Nov. 23, 2012 Rise Set
Actual Time 7:20 AM CST 4:40 PM CST
Civil Twilight 6:48 AM CST 5:12 PM CST
Nautical Twilight 6:12 AM CST 5:48 PM CST
Astronomical Twilight 5:38 AM CST 6:22 PM CST
Moon 2:03 PM CST (11/23) 2:31 AM CST (11/23)
Length of Visible Light 10h 24m
Length of Day
9h 20m
Waxing Gibbous, 80% of the Moon is Illuminated
Nov 23
Waxing Gibbous
Nov 28
Full
Dec 6
Last Quarter
Dec 13
New
Dec 19
First Quarter

Hourly Weather History & Observations

Time (CST) Temp. Windchill Dew Point Humidity Pressure Visibility Wind Dir Wind Speed Gust Speed Precip Events Conditions
12:13 AM 28.4 °F 13.0 °F 15.8 °F 59% 30.06 in 10.0 mi WNW 28.8 mph 42.6 mph N/A   Overcast
12:33 AM 26.6 °F 9.8 °F 15.8 °F 64% 30.07 in 10.0 mi WNW 32.2 mph 47.2 mph N/A   Overcast
12:53 AM 26.6 °F 10.3 °F 14.0 °F 59% 30.07 in 10.0 mi WNW 29.9 mph 44.9 mph N/A   Overcast
1:13 AM 26.6 °F 9.3 °F 15.8 °F 64% 30.07 in 10.0 mi WNW 34.5 mph 41.4 mph N/A Snow Light Snow
1:33 AM 26.6 °F 9.1 °F 14.0 °F 59% 30.08 in 7.0 mi WNW 35.7 mph 44.9 mph N/A   Overcast
1:53 AM 26.6 °F 9.6 °F 17.6 °F 69% 30.08 in 10.0 mi WNW 33.4 mph 40.3 mph N/A   Overcast
2:13 AM 26.6 °F 9.3 °F 15.8 °F 64% 30.10 in 10.0 mi WNW 34.5 mph 40.3 mph N/A   Overcast
2:33 AM 24.8 °F 6.8 °F 14.0 °F 64% 30.11 in 10.0 mi WNW 34.5 mph 46.0 mph N/A   Overcast
2:53 AM 24.8 °F 7.3 °F 14.0 °F 64% 30.11 in 10.0 mi WNW 32.2 mph 39.1 mph N/A   Overcast
3:13 AM 24.8 °F 7.3 °F 14.0 °F 64% 30.11 in 10.0 mi WNW 32.2 mph 41.4 mph N/A   Overcast
3:33 AM 24.8 °F 8.4 °F 14.0 °F 64% 30.12 in 10.0 mi WNW 27.6 mph 44.9 mph N/A   Mostly Cloudy
3:53 AM 24.8 °F 8.1 °F 14.0 °F 64% 30.12 in 10.0 mi WNW 28.8 mph 39.1 mph N/A   Mostly Cloudy
4:13 AM 24.8 °F 8.4 °F 14.0 °F 64% 30.13 in 10.0 mi WNW 27.6 mph 38.0 mph N/A   Mostly Cloudy
4:33 AM 23.0 °F 5.7 °F 12.2 °F 63% 30.15 in 10.0 mi WNW 28.8 mph 35.7 mph N/A   Mostly Cloudy
4:53 AM 23.0 °F 5.1 °F 12.2 °F 63% 30.17 in 10.0 mi WNW 31.1 mph 39.1 mph N/A   Overcast
5:13 AM 21.2 °F 3.9 °F 10.4 °F 63% 30.18 in 10.0 mi WNW 26.5 mph 42.6 mph N/A   Mostly Cloudy
5:33 AM 21.2 °F 3.5 °F 10.4 °F 63% 30.18 in 10.0 mi WNW 27.6 mph 36.8 mph N/A   Mostly Cloudy
5:53 AM 21.2 °F 4.2 °F 10.4 °F 63% 30.20 in 10.0 mi WNW 25.3 mph 35.7 mph N/A   Overcast
6:13 AM 21.2 °F 3.9 °F 12.2 °F 68% 30.21 in 7.0 mi WNW 26.5 mph 39.1 mph N/A Snow Light Snow
6:33 AM 21.2 °F 3.5 °F 12.2 °F 68% 30.22 in 5.0 mi WNW 27.6 mph 39.1 mph N/A Snow Light Snow
6:53 AM 21.2 °F 4.5 °F 12.2 °F 68% 30.22 in 4.0 mi NW 24.2 mph 32.2 mph N/A Snow Light Snow
7:13 AM 19.4 °F -0.0 °F 10.4 °F 68% 30.24 in 10.0 mi NW 32.2 mph 38.0 mph N/A Snow Light Snow
7:33 AM 21.2 °F 4.5 °F 10.4 °F 63% 30.24 in 7.0 mi NW 24.2 mph 34.5 mph N/A Snow Light Snow
7:53 AM 21.2 °F 5.2 °F 10.4 °F 63% 30.25 in 10.0 mi NW 21.9 mph 29.9 mph N/A Snow Light Snow
8:13 AM 21.2 °F 4.9 °F 12.2 °F 68% 30.25 in 10.0 mi NW 23.0 mph 28.8 mph N/A Snow Light Snow
8:33 AM 23.0 °F 7.2 °F 12.2 °F 63% 30.26 in 7.0 mi NW 23.0 mph 33.4 mph N/A Snow Light Snow
8:53 AM 23.0 °F 7.6 °F 12.2 °F 63% 30.27 in 7.0 mi NW 21.9 mph 29.9 mph N/A Snow Light Snow
9:13 AM 23.0 °F 7.6 °F 14.0 °F 68% 30.28 in 5.0 mi WNW 21.9 mph 29.9 mph N/A Snow Light Snow
9:34 AM 23.0 °F 8.3 °F 14.0 °F 68% 30.29 in 2.5 mi NW 19.6 mph 26.5 mph N/A Snow Light Snow
9:53 AM 23.0 °F 8.0 °F 14.0 °F 68% 30.30 in 5.0 mi WNW 20.7 mph 26.5 mph N/A Snow Light Snow
10:13 AM 24.8 °F 10.0 °F 15.8 °F 69% 30.31 in 7.0 mi NW 21.9 mph 27.6 mph N/A Snow Light Snow
10:34 AM 24.8 °F 10.0 °F 14.0 °F 64% 30.32 in 7.0 mi NW 21.9 mph 33.4 mph N/A Snow Light Snow
10:53 AM 24.8 °F 9.0 °F 14.0 °F 64% 30.32 in 10.0 mi NW 25.3 mph 29.9 mph N/A Snow Light Snow
11:13 AM 26.6 °F 11.4 °F 14.0 °F 59% 30.31 in 10.0 mi NNW 25.3 mph 32.2 mph N/A   Overcast
11:33 AM 26.6 °F 11.4 °F 12.2 °F 55% 30.32 in 10.0 mi NW 25.3 mph 32.2 mph N/A   Overcast
11:53 AM 26.6 °F 10.8 °F 14.0 °F 59% 30.32 in 10.0 mi NNW 27.6 mph 32.2 mph N/A   Overcast
12:13 PM 28.4 °F 14.4 °F 14.0 °F 55% 30.32 in 10.0 mi NW 23.0 mph 28.8 mph N/A   Overcast
12:33 PM 28.4 °F 15.8 °F 14.0 °F 55% 30.31 in 10.0 mi NW 18.4 mph 27.6 mph N/A   Overcast
12:53 PM 28.4 °F 15.1 °F 12.2 °F 51% 30.31 in 10.0 mi NNW 20.7 mph 31.1 mph N/A   Overcast
1:13 PM 30.2 °F 17.8 °F 14.0 °F 51% 30.31 in 10.0 mi NNW 19.6 mph 27.6 mph N/A   Mostly Cloudy
1:33 PM 30.2 °F 17.8 °F 14.0 °F 51% 30.32 in 10.0 mi NW 19.6 mph 26.5 mph N/A   Mostly Cloudy
1:53 PM 30.2 °F 17.4 °F 14.0 °F 51% 30.32 in 10.0 mi NW 20.7 mph 24.2 mph N/A   Overcast
2:13 PM 30.2 °F 17.1 °F 14.0 °F 51% 30.32 in 10.0 mi NW 21.9 mph 27.6 mph N/A   Overcast
2:33 PM 28.4 °F 15.4 °F 12.2 °F 51% 30.33 in 10.0 mi NW 19.6 mph 28.8 mph N/A   Overcast
2:53 PM 28.4 °F 15.1 °F 12.2 °F 51% 30.33 in 10.0 mi NW 20.7 mph 28.8 mph N/A   Overcast
3:13 PM 28.4 °F 14.7 °F 12.2 °F 51% 30.34 in 10.0 mi NW 21.9 mph 25.3 mph N/A   Overcast
3:33 PM 28.4 °F 14.7 °F 12.2 °F 51% 30.35 in 10.0 mi WNW 21.9 mph 26.5 mph N/A   Overcast
3:54 PM 28.4 °F 16.2 °F 14.0 °F 55% 30.35 in 10.0 mi NW 17.3 mph 21.9 mph N/A   Overcast
4:13 PM 28.4 °F 16.2 °F 14.0 °F 55% 30.36 in 10.0 mi WNW 17.3 mph - N/A   Overcast
4:33 PM 26.6 °F 13.8 °F 12.2 °F 55% 30.36 in 10.0 mi WNW 17.3 mph - N/A   Overcast
4:53 PM 26.6 °F 14.3 °F 12.2 °F 55% 30.36 in 10.0 mi NW 16.1 mph 24.2 mph N/A   Overcast
5:13 PM 26.6 °F 14.3 °F 12.2 °F 55% 30.37 in 10.0 mi NW 16.1 mph 24.2 mph N/A   Overcast
5:33 PM 26.6 °F 14.3 °F 12.2 °F 55% 30.37 in 10.0 mi WNW 16.1 mph 25.3 mph N/A   Overcast
5:53 PM 24.8 °F 11.9 °F 12.2 °F 59% 30.37 in 10.0 mi WNW 16.1 mph 24.2 mph N/A   Overcast
6:13 PM 24.8 °F 11.5 °F 12.2 °F 59% 30.37 in 10.0 mi WNW 17.3 mph 24.2 mph N/A   Overcast
6:33 PM 24.8 °F 10.7 °F 14.0 °F 64% 30.38 in 10.0 mi WNW 19.6 mph 23.0 mph N/A   Overcast
6:53 PM 24.8 °F 10.7 °F 14.0 °F 64% 30.38 in 10.0 mi NW 19.6 mph - N/A   Overcast
7:13 PM 23.0 °F 9.6 °F 12.2 °F 63% 30.37 in 10.0 mi WNW 16.1 mph 21.9 mph N/A   Overcast
7:33 PM 23.0 °F 9.2 °F 12.2 °F 63% 30.37 in 10.0 mi NW 17.3 mph - N/A   Overcast
7:53 PM 23.0 °F 10.6 °F 12.2 °F 63% 30.37 in 10.0 mi WNW 13.8 mph - N/A   Overcast
8:14 PM 23.0 °F 10.6 °F 14.0 °F 68% 30.37 in 10.0 mi WNW 13.8 mph - N/A   Overcast
8:33 PM 21.2 °F 8.9 °F 12.2 °F 68% 30.38 in 10.0 mi WNW 12.7 mph - N/A   Overcast
8:53 PM 19.4 °F 6.6 °F 12.2 °F 74% 30.38 in 10.0 mi WNW 12.7 mph - N/A   Overcast
9:14 PM 19.4 °F 8.6 °F 12.2 °F 74% 30.37 in 10.0 mi NW 9.2 mph - N/A   Overcast
9:33 PM 19.4 °F 7.2 °F 12.2 °F 74% 30.37 in 10.0 mi NW 11.5 mph - N/A   Overcast
9:53 PM 19.4 °F 7.9 °F 12.2 °F 74% 30.36 in 10.0 mi NNW 10.4 mph - N/A   Overcast
10:13 PM 19.4 °F 7.2 °F 12.2 °F 74% 30.36 in 10.0 mi NW 11.5 mph - N/A   Overcast
10:33 PM 19.4 °F 7.2 °F 12.2 °F 74% 30.36 in 10.0 mi NW 11.5 mph - N/A   Overcast
10:53 PM 19.4 °F 9.5 °F 12.2 °F 74% 30.36 in 10.0 mi NW 8.1 mph - N/A   Scattered Clouds
11:13 PM 17.6 °F 9.3 °F 10.4 °F 73% 30.36 in 10.0 mi WNW 5.8 mph - N/A   Clear
11:33 PM 17.6 °F 9.3 °F 10.4 °F 73% 30.35 in 10.0 mi NW 5.8 mph - N/A   Clear
11:53 PM 17.6 °F 7.3 °F 10.4 °F 73% 30.36 in 10.0 mi WNW 8.1 mph - N/A   Clear